| time (UTC) | temp F | wind direction | speed MPH | gust MPH | rain 1hr in | rain 24hr in | rain mn in | humidity % | barometer mb |
| 20260508213046 | 73 | 312 | 8.0 | 12.0 | 0.00 | 0.00 | 0.00 | 26 | 1003.3 |
| 20260508211540 | 71 | 320 | 8.0 | 14.0 | 0.00 | 0.00 | 0.00 | 26 | 1003.5 |
| 20260508210033 | 71 | 294 | 8.0 | 13.0 | 0.00 | 0.00 | 0.00 | 25 | 1003.6 |
| 20260508204533 | 71 | 319 | 8.0 | 11.0 | 0.00 | 0.00 | 0.00 | 25 | 1003.7 |
| 20260508203029 | 71 | 330 | 8.0 | 19.0 | 0.00 | 0.00 | 0.00 | 25 | 1004.0 |
| 20260508201527 | 71 | 329 | 6.0 | 12.0 | 0.00 | 0.00 | 0.00 | 24 | 1004.2 |
| 20260508200030 | 72 | 287 | 11.0 | 16.0 | 0.00 | 0.00 | 0.00 | 23 | 1004.5 |
| 20260508194525 | 72 | 281 | 4.0 | 12.0 | 0.00 | 0.00 | 0.00 | 23 | 1004.7 |
| 20260508193028 | 72 | 280 | 9.0 | 13.0 | 0.00 | 0.00 | 0.00 | 23 | 1005.0 |
| 20260508191534 | 70 | 290 | 7.0 | 12.0 | 0.00 | 0.00 | 0.00 | 23 | 1005.2 |
| 20260508190027 | 71 | 274 | 6.0 | 10.0 | 0.00 | 0.00 | 0.00 | 24 | 1005.5 |
| 20260508184522 | 71 | 285 | 6.0 | 10.0 | 0.00 | 0.00 | 0.00 | 24 | 1005.6 |
| 20260508183014 | 70 | 307 | 6.0 | 9.0 | 0.00 | 0.00 | 0.00 | 24 | 1005.8 |
| 20260508181511 | 69 | 285 | 9.0 | 14.0 | 0.00 | 0.00 | 0.00 | 25 | 1006.0 |
| 20260508180009 | 70 | 285 | 6.0 | 13.0 | 0.00 | 0.00 | 0.00 | 24 | 1006.2 |
| 20260508174506 | 68 | 328 | 7.0 | 12.0 | 0.00 | 0.00 | 0.00 | 25 | 1006.3 |
| 20260508173004 | 68 | 297 | 9.0 | 13.0 | 0.00 | 0.00 | 0.00 | 26 | 1006.8 |
| 20260508171502 | 68 | 283 | 8.0 | 12.0 | 0.00 | 0.00 | 0.00 | 26 | 1007.2 |
| 20260508164608 | 66 | 244 | 6.0 | 11.0 | 0.00 | 0.00 | 0.00 | 26 | 1007.7 |
| 20260508163056 | 67 | 224 | 4.0 | 9.0 | 0.00 | 0.00 | 0.00 | 27 | 1007.8 |
| 20260508161558 | 67 | 267 | 6.0 | 13.0 | 0.00 | 0.00 | 0.00 | 26 | 1008.0 |
| 20260508160052 | 65 | 300 | 6.0 | 10.0 | 0.00 | 0.00 | 0.00 | 28 | 1008.1 |
| 20260508154550 | 65 | 271 | 5.0 | 11.0 | 0.00 | 0.00 | 0.00 | 30 | 1008.1 |
| 20260508153047 | 64 | 236 | 8.0 | 15.0 | 0.00 | 0.00 | 0.00 | 30 | 1008.4 |
| 20260508151543 | 63 | 219 | 5.0 | 10.0 | 0.00 | 0.00 | 0.00 | 31 | 1008.7 |
| 20260508150041 | 62 | 240 | 6.0 | 10.0 | 0.00 | 0.00 | 0.00 | 33 | 1008.9 |
| 20260508144538 | 61 | 257 | 6.0 | 9.0 | 0.00 | 0.00 | 0.00 | 34 | 1009.0 |
| 20260508143034 | 59 | 231 | 8.0 | 15.0 | 0.00 | 0.00 | 0.00 | 35 | 1009.2 |
| 20260508141533 | 57 | 220 | 9.0 | 20.0 | 0.00 | 0.00 | 0.00 | 37 | 1009.3 |
| 20260508140028 | 57 | 225 | 12.0 | 18.0 | 0.00 | 0.00 | 0.00 | 38 | 1009.3 |
| 20260508134524 | 55 | 231 | 8.0 | 16.0 | 0.00 | 0.00 | 0.00 | 39 | 1009.6 |
| 20260508133021 | 54 | 208 | 10.0 | 14.0 | 0.00 | 0.00 | 0.00 | 39 | 1009.7 |
| 20260508131520 | 54 | 234 | 8.0 | 15.0 | 0.00 | 0.00 | 0.00 | 38 | 1009.8 |
| 20260508130020 | 52 | 229 | 3.0 | 13.0 | 0.00 | 0.00 | 0.00 | 41 | 1009.9 |
| 20260508124514 | 50 | 222 | 3.0 | 6.0 | 0.00 | 0.00 | 0.00 | 42 | 1009.8 |
| 20260508123013 | 48 | 212 | 2.0 | 7.0 | 0.00 | 0.00 | 0.00 | 49 | 1009.9 |
| 20260508121513 | 46 | 195 | 4.0 | 8.0 | 0.00 | 0.00 | 0.00 | 50 | 1010.0 |
| 20260508120026 | 44 | 179 | 2.0 | 6.0 | 0.00 | 0.00 | 0.00 | 52 | 1009.8 |
| 20260508114511 | 43 | 188 | 3.0 | 7.0 | 0.00 | 0.00 | 0.00 | 52 | 1009.7 |
| 20260508113013 | 42 | 187 | 4.0 | 8.0 | 0.00 | 0.00 | 0.00 | 52 | 1009.7 |
| 20260508111509 | 42 | 192 | 5.0 | 8.0 | 0.00 | 0.00 | 0.00 | 52 | 1009.8 |
| 20260508110006 | 41 | 198 | 4.0 | 6.0 | 0.00 | 0.00 | 0.00 | 53 | 1009.6 |
| 20260508104505 | 41 | 187 | 2.0 | 5.0 | 0.00 | 0.00 | 0.00 | 54 | 1009.8 |
| 20260508103004 | 41 | 190 | 2.0 | 4.0 | 0.00 | 0.00 | 0.00 | 53 | 1009.8 |
| 20260508101502 | 41 | 183 | 1.0 | 3.0 | 0.00 | 0.00 | 0.00 | 52 | 1010.0 |
| 20260508094602 | 42 | 180 | 1.0 | 2.0 | 0.00 | 0.00 | 0.00 | 52 | 1010.0 |
| 20260508093104 | 42 | 184 | 1.0 | 3.0 | 0.00 | 0.00 | 0.00 | 51 | 1010.1 |
| 20260508091608 | 42 | 186 | 1.0 | 3.0 | 0.00 | 0.00 | 0.00 | 51 | 1010.0 |
| 20260508090105 | 42 | 178 | 1.0 | 2.0 | 0.00 | 0.00 | 0.00 | 52 | 1010.1 |
| 20260508084555 | 42 | 179 | 1.0 | 2.0 | 0.00 | 0.00 | 0.00 | 51 | 1010.1 |
| 20260508083104 | 41 | 179 | 1.0 | 3.0 | 0.00 | 0.00 | 0.00 | 51 | 1010.1 |
| 20260508081552 | 42 | 180 | 1.0 | 3.0 | 0.00 | 0.00 | 0.00 | 51 | 1010.3 |
| 20260508080101 | 42 | 179 | 2.0 | 3.0 | 0.00 | 0.00 | 0.00 | 50 | 1010.4 |
| 20260508074546 | 43 | 182 | 1.0 | 3.0 | 0.00 | 0.00 | 0.00 | 48 | 1010.5 |
| 20260508073049 | 44 | 183 | 1.0 | 3.0 | 0.00 | 0.00 | 0.00 | 47 | 1010.6 |
| 20260508071545 | 45 | 180 | 1.0 | 3.0 | 0.00 | 0.00 | 0.00 | 46 | 1010.7 |
| 20260508070043 | 44 | 176 | 0.0 | 2.0 | 0.00 | 0.00 | 0.00 | 48 | 1010.7 |
| 20260508064540 | 44 | 178 | 1.0 | 2.0 | 0.00 | 0.00 | 0.00 | 47 | 1010.6 |
| 20260508063038 | 45 | 176 | 1.0 | 2.0 | 0.00 | 0.00 | 0.00 | 45 | 1010.8 |
| 20260508061539 | 46 | 172 | 1.0 | 2.0 | 0.00 | 0.00 | 0.00 | 44 | 1010.9 |
| 20260508060036 | 45 | 176 | 1.0 | 2.0 | 0.00 | 0.00 | 0.00 | 45 | 1011.0 |
| 20260508054541 | 45 | 175 | 1.0 | 3.0 | 0.00 | 0.00 | 0.00 | 46 | 1011.0 |
| 20260508053032 | 51 | 359 | 0.0 | 0.0 | 0.00 | 0.00 | 0.00 | 37 | 1011.1 |
| 20260508051534 | 50 | 359 | 0.0 | 0.0 | 0.00 | 0.00 | 0.00 | 36 | 1011.2 |
| 20260508050026 | 51 | 359 | 0.0 | 0.0 | 0.00 | 0.00 | 0.00 | 35 | 1011.2 |
| 20260508044526 | 51 | 359 | 0.0 | 0.0 | 0.00 | 0.00 | 0.00 | 36 | 1011.3 |
| 20260508043025 | 51 | 359 | 0.0 | 0.0 | 0.00 | 0.00 | 0.00 | 35 | 1011.3 |
| 20260508041525 | 50 | 359 | 0.0 | 0.0 | 0.00 | 0.00 | 0.00 | 39 | 1011.3 |
| 20260508040024 | 53 | 359 | 0.0 | 0.0 | 0.00 | 0.00 | 0.00 | 34 | 1011.4 |
| 20260508034530 | 53 | 352 | 0.0 | 0.0 | 0.00 | 0.00 | 0.00 | 35 | 1011.3 |
| 20260508033024 | 52 | 352 | 0.0 | 0.0 | 0.00 | 0.00 | 0.00 | 37 | 1011.2 |
| 20260508031526 | 53 | 352 | 0.0 | 0.0 | 0.00 | 0.00 | 0.00 | 33 | 1011.3 |
| 20260508030023 | 54 | 352 | 0.0 | 2.0 | 0.00 | 0.00 | 0.00 | 33 | 1011.2 |
| 20260508024525 | 54 | 351 | 2.0 | 3.0 | 0.00 | 0.00 | 0.00 | 32 | 1011.1 |
| 20260508023020 | 54 | 333 | 1.0 | 2.0 | 0.00 | 0.00 | 0.00 | 32 | 1011.0 |
| 20260508021520 | 55 | 333 | 0.0 | 1.0 | 0.00 | 0.00 | 0.00 | 32 | 1011.0 |
| 20260508020027 | 56 | 333 | 1.0 | 3.0 | 0.00 | 0.00 | 0.00 | 31 | 1010.8 |
| 20260508014519 | 57 | 333 | 2.0 | 4.0 | 0.00 | 0.00 | 0.00 | 30 | 1010.6 |
| 20260508013018 | 57 | 332 | 3.0 | 4.0 | 0.00 | 0.00 | 0.00 | 30 | 1010.5 |
| 20260508011520 | 57 | 330 | 3.0 | 4.0 | 0.00 | 0.00 | 0.00 | 30 | 1010.3 |
| 20260508010020 | 58 | 334 | 4.0 | 6.0 | 0.00 | 0.00 | 0.00 | 29 | 1010.2 |
| 20260508004516 | 58 | 329 | 5.0 | 7.0 | 0.00 | 0.00 | 0.00 | 28 | 1010.2 |
| 20260508003016 | 59 | 322 | 4.0 | 9.0 | 0.00 | 0.00 | 0.00 | 29 | 1010.3 |
| 20260508001515 | 59 | 334 | 8.0 | 12.0 | 0.00 | 0.00 | 0.00 | 28 | 1010.3 |
| 20260508000014 | 59 | 330 | 5.0 | 11.0 | 0.00 | 0.00 | 0.00 | 27 | 1010.4 |
| 20260507234513 | 60 | 293 | 5.0 | 9.0 | 0.00 | 0.00 | 0.00 | 27 | 1010.4 |
| 20260507233012 | 60 | 337 | 7.0 | 11.0 | 0.00 | 0.00 | 0.00 | 27 | 1010.4 |
| 20260507231511 | 61 | 321 | 5.0 | 10.0 | 0.00 | 0.00 | 0.00 | 27 | 1010.7 |
| 20260507230010 | 60 | 322 | 5.0 | 9.0 | 0.00 | 0.00 | 0.00 | 27 | 1010.6 |
| 20260507224512 | 60 | 302 | 5.0 | 11.0 | 0.00 | 0.00 | 0.00 | 27 | 1010.8 |
| 20260507223009 | 60 | 328 | 6.0 | 15.0 | 0.00 | 0.00 | 0.00 | 27 | 1010.9 |
| 20260507221508 | 59 | 329 | 7.0 | 11.0 | 0.00 | 0.00 | 0.00 | 27 | 1010.8 |
| 20260507220005 | 60 | 307 | 3.0 | 14.0 | 0.00 | 0.00 | 0.00 | 27 | 1011.0 |
| 20260507214510 | 59 | 288 | 6.0 | 12.0 | 0.00 | 0.00 | 0.00 | 27 | 1011.1 |